980119 954  0.6-  0.9+    980302 360  0.2-  0.5-    990415 693  0.1+  1.4+  

980119 954  0.7-  0.8+    980302 360  0.2-  0.6-    2004/                   

980119 954  0.7-  0.8+    980302 352  0.6+  1.6-    041021 349  0.4-  1.4+  

980119 954  0.7-  0.8+    980302 352  1.1+  1.7-    041021 349  0.1-  1.4+  

980119 954  0.6-  0.8+    980302 352  0.1+  1.4-    041021 349  0.1-  1.4+  

980119 954  0.7-  0.8+    980302 897  0.4+  1.1-    041023 170  0.4-  0.3-  

980119 954  0.7-  0.9+    980302 897  0.5+  1.4-    041023 170  0.3+  0.7-  

980119 954  0.7-  0.9+    980303 402  0.1+  0.5-    041023 170  0.2+  0.4-  

980119 954  0.7-  0.8+    980303 402  0.0   0.6-    041023 360  0.3+  0.6-  

980119 954  0.7-  0.8+    980303 402  0.1+  0.4-    041023 360  0.1-  0.6-  

980119 954  0.7-  0.9+    980305 372  0.8+  0.4+    041024 442  0.4+  1.4+  

980119 954  0.7-  0.9+    980310 610  0.5+  1.7-    041024 442  1.1-  0.2-  

980119 954  0.7-  0.8+    980310 610  0.6+  1.9-    041024 442  0.5-  0.5-  

980119 954  0.7-  0.8+    980310 610 (0.5+  2.0-)   041024 442  0.2+  0.6-  

980119 954  0.7-  0.9+    980312 900  0.6+  1.2-    041024 442  1.1+  1.2-  

980119 954  0.7-  0.8+    980312 900  0.2-  0.9-    041024 170  0.1-  0.3+  

980121 355  0.9-  0.7+    980314 610 (1.5-  3.0-)   041024 170  0.1-  0.3+  

980121 355  1.1-  0.7+    980315 355 (1.9+  2.7-)   041024 170  0.0   0.2+  

980124 118  1.2-  0.6+    980315 355 (2.0+  2.5-)   041024 170  0.2+  0.4-  

980124 118  0.9-  0.5+    980315 355 (1.4+  2.3-)   041024 170  0.1+  0.3-  

980125 897  0.8-  0.2+    980315 897  0.2+  1.0-                            

980125 897  0.9-  0.2+    980315 897  0.1-  1.0-                            

 

Date/        TT  R.A.(2000) Decl.     Delta   r     Daily motion  Mag.  Moon Age

              h    h  m       。  ,                      ,  / PA 。  m1      。

2004 Oct. 25 18  08 03.31  +11 59.4   1.658  1.965    24.6 /  85  15.9  116  .94

          26 18  08 04.98  +12 01.5   1.647  1.964    24.4 /  85  15.9  103  .98

          27 18  08 06.64  +12 03.8   1.636  1.963    24.3 /  84  15.9   91 1.00

          28 18  08 08.29  +12 06.1   1.624  1.961    24.1 /  84  15.8   79 1.00

          29 18  08 09.92  +12 08.6   1.613  1.960    23.9 /  84  15.8   67  .97

          30 18  08 11.54  +12 11.2   1.602  1.959    23.7 /  83  15.8   56  .93

          31 18  08 13.15  +12 14.0   1.591  1.958    23.5 /  83  15.8   45  .88

     Nov.  1 18  08 14.74  +12 16.8   1.579  1.957    23.3 /  83  15.7   34  .81

           2 18  08 16.31  +12 19.9   1.568  1.956    23.1 /  82  15.7   24  .73

           3 18  08 17.88  +12 23.0   1.557  1.955    22.9 /  82  15.7   15  .64

           4 18  08 19.42  +12 26.3   1.546  1.954    22.7 /  81  15.7   13  .55

           5 18  08 20.96  +12 29.8   1.535  1.953    22.5 /  81  15.7   19  .45

           6 18  08 22.47  +12 33.4   1.524  1.952    22.3 /  80  15.6   29  .36

           7 18  08 23.97  +12 37.2   1.513  1.951    22.1 /  80  15.6   40  .26

           8 18  08 25.45  +12 41.2   1.503  1.950    21.8 /  79  15.6   52  .18

           9 18  08 26.92  +12 45.3   1.492  1.950    21.6 /  78  15.6   65  .10

          10 18  08 28.37  +12 49.7   1.481  1.949    21.4 /  78  15.5   78  .05

          11 18  08 29.80  +12 54.2   1.470  1.948    21.2 /  77  15.5   92  .01

          12 18  08 31.21  +12 58.9   1.460  1.948    21.0 /  76  15.5  105  .00

          13 18  08 32.61  +13 03.9   1.449  1.947    20.7 /  76  15.5  120  .02

          14 18  08 33.98  +13 09.0   1.439  1.946    20.5 /  75  15.5  134  .07

          15 18  08 35.34  +13 14.4   1.428  1.946    20.3 /  74  15.4  148  .14

          16 18  08 36.67  +13 20.0   1.418  1.945    20.1 /  73  15.4  161  .23

          17 18  08 37.99  +13 25.8   1.407  1.945    19.8 /  72  15.4  170  .33

          18 18  08 39.28  +13 31.8   1.397  1.944    19.6 /  71  15.4  165  .44

          19 18  08 40.56  +13 38.1   1.387  1.944    19.4 /  70  15.4  153  .56

          20 18  08 41.81  +13 44.6   1.377  1.944    19.2 /  69  15.4  141  .66

          21 18  08 43.05  +13 51.4   1.367  1.943    19.0 /  68  15.3  128  .76

          22 18  08 44.26  +13 58.5   1.357  1.943    18.8 /  67  15.3  116  .84

          23 18  08 45.45  +14 05.8   1.347  1.943    18.6 /  66  15.3  103  .91

          24 18  08 46.62  +14 13.3   1.337  1.942    18.4 /  65  15.3   91  .96

          25 18  08 47.76  +14 21.2   1.328  1.942    18.2 /  63  15.3   79  .99

          26 18  08 48.88  +14 29.3   1.318  1.942    18.0 /  62  15.2   67 1.00

          27 18  08 49.98  +14 37.7   1.309  1.942    17.8 /  61  15.2   55  .99

          28 18  08 51.05  +14 46.3   1.299  1.942    17.7 /  59  15.2   44  .97

          29 18  08 52.10  +14 55.3   1.290  1.942    17.5 /  58  15.2   32  .92

          30 18  08 53.12  +15 04.6   1.281  1.942    17.3 /  56  15.2   21  .87

     Dec.  1 18  08 54.12  +15 14.2   1.271  1.942    17.2 /  55  15.2   11  .80

NAKANO

         **** Don't distribute anyone except personal use only ****

                (C) Copyright 2004 OAA/ComputingSection

write mail from CFAD0::NAKANO on 2004-10-26 02:12:30(JST).

 

  69P/Taylor 

Epoch 2004 Nov. 11.0 TT = JDT 2453320.5  

T 2004 Nov. 30.57692 TT                                 Nakano

q   1.9418794            (2000.0)            P               Q

n   0.14175811     Peri.  355.52174     -0.25202387     -0.90880064

a   3.6428177      Node   108.79689     +0.89841934     -0.34741877

e   0.4669293      Incl.   20.56360     +0.35962016     +0.23104457

P   6.95

From 357 observations 1990-1999, mean residual 1".00.  Nongravitational

   parameters A1 = +4.27 +/- 0.66, A2 = +0.4350 +/- 0.1439.



NAKANO

         **** Don't distribute anyone except personal use only ****

                (C) Copyright 2001 OAA/ComputingSection

write mail from CFAD0::NAKANO on 2001-04-28 20:31:35(JST).

 

戻ります。